WetterOnline ( https://www.wetteronline.de )

Wetter aktuell Hunsrück (in 400m)

Aktuelles Wetter: Deuselbach (483m)

6-stündlich | Neueste Meldungen
Ortszeit Temperatur Wetter
Di, 04.10. 8:00 7.0° C wolkig
Di, 04.10. 2:00 7.2° C fast wolkenlos
Mo, 03.10. 20:00 10.2° C wolkig
Mo, 03.10. 14:00 13.1° C leicht bewölkt
Mo, 03.10. 8:00 6.3° C Nebel
Mo, 03.10. 2:00 8.7° C Nebel
So, 02.10. 20:00 9.7° C Nebel
So, 02.10. 14:00 11.9° C leichter Regen
Ortszeit Temperatur Wetter
Di, 04.10. 8:00 7.0° C wolkig
Di, 04.10. 7:50 7.0° C wolkig
Di, 04.10. 7:40 6.9° C bewölkt
Di, 04.10. 7:30 7.0° C wolkig
Di, 04.10. 7:20 7.0° C wolkig
Di, 04.10. 7:10 7.6° C bedeckt
Di, 04.10. 7:00 6.6° C wolkig
Di, 04.10. 6:30 6.5° C bedeckt
Di, 04.10. 6:00 6.6° C bedeckt
Di, 04.10. 5:30 6.0° C bedeckt
Di, 04.10. 5:00 6.3° C bewölkt
Ortszeit Relative Feuchte Sichtweite
Di, 04.10. 8:00 93% 25 km
Di, 04.10. 2:00 91% 30 km
Mo, 03.10. 20:00 83% 40 km
Mo, 03.10. 14:00 66% 30 km
Mo, 03.10. 8:00 100% 1.5 km
Mo, 03.10. 2:00 99% 12 km
So, 02.10. 20:00 98% 0.4 km
So, 02.10. 14:00 95% 17 km
Ortszeit Relative Feuchte Sichtweite
Di, 04.10. 8:00 93% 25 km
Di, 04.10. 7:50 93% -
Di, 04.10. 7:40 97% -
Di, 04.10. 7:30 93% 28 km
Di, 04.10. 7:20 93% -
Di, 04.10. 7:10 93% -
Di, 04.10. 7:00 97% 26 km
Di, 04.10. 6:30 96% 24 km
Di, 04.10. 6:00 97% 30 km
Di, 04.10. 5:30 93% 25 km
Di, 04.10. 5:00 96% 25 km
Ortszeit Niederschlagsmenge Niederschlagsart
Di, 04.10. 8:00 0.0 l/m2 in 12 Std. -
Di, 04.10. 2:00 0.0 l/m2 in 6 Std. -
Mo, 03.10. 20:00 0.1 l/m2 in 12 Std. -
Mo, 03.10. 14:00 0.1 l/m2 in 6 Std. -
Mo, 03.10. 8:00 0.1 l/m2 in 12 Std. -
Mo, 03.10. 2:00 0.1 l/m2 in 6 Std. -
So, 02.10. 20:00 15 l/m2 in 12 Std. Regen
So, 02.10. 14:00 9 l/m2 in 6 Std. Regen
Ortszeit Niederschlagsmenge Niederschlagsart
Di, 04.10. 8:00 0.0 l/m2 in 1 Std. -
Di, 04.10. 7:50 keine Meldung -
Di, 04.10. 7:40 keine Meldung -
Di, 04.10. 7:30 0.0 l/m2 in 1 Std. -
Di, 04.10. 7:20 keine Meldung -
Di, 04.10. 7:10 keine Meldung -
Di, 04.10. 7:00 0.0 l/m2 in 1 Std. -
Di, 04.10. 6:30 0.0 l/m2 in 1 Std. -
Di, 04.10. 6:00 0.0 l/m2 in 1 Std. -
Di, 04.10. 5:30 0.0 l/m2 in 1 Std. -
Di, 04.10. 5:00 0.0 l/m2 in 1 Std. -
Ortszeit Stärke Spitze Richtung
km/h Bft. km/h Grad Sektor
Di, 04.10. 8:00 4 1 7 90° O
Di, 04.10. 2:00 7 2 14 240° SW
Mo, 03.10. 20:00 6 1 22 90° O
Mo, 03.10. 14:00 6 1 17 350° N
Mo, 03.10. 8:00 2 1 11 210° SW
Mo, 03.10. 2:00 4 1 14 190° S
So, 02.10. 20:00 2 1 24 200° S
So, 02.10. 14:00 11 2 26 260° W
Ortszeit Stärke Spitze Richtung
km/h Bft. km/h Grad Sektor
Di, 04.10. 8:00 4 1 7 90° O
Di, 04.10. 7:50 4 1 - 90° O
Di, 04.10. 7:40 2 1 - 120° SO
Di, 04.10. 7:30 4 1 7 80° O
Di, 04.10. 7:20 4 1 - 80° O
Di, 04.10. 7:10 4 1 - 140° SO
Di, 04.10. 7:00 6 1 7 150° SO
Di, 04.10. 6:30 4 1 7 140° SO
Di, 04.10. 6:00 4 1 7 180° S
Di, 04.10. 5:30 0 0 4 - -
Di, 04.10. 5:00 4 1 7 150° SO
Ortszeit Untergrenze Bedeckung Gattung
total tief tief mittel hoch
Di, 04.10. 8:00 8400 m 7/8 0/8 - - -
Di, 04.10. 2:00 9000 m 1/8 0/8 - - -
Mo, 03.10. 20:00 720 m 8/8 1/8 - - -
Mo, 03.10. 14:00 660 m 3/8 1/8 - - -
Mo, 03.10. 8:00 270 m 7/8 7/8 - - -
Mo, 03.10. 2:00 60 m 6/8 6/8 - - -
So, 02.10. 20:00 6000 m 2/8 2/8 - - -
So, 02.10. 14:00 210 m 8/8 8/8 - - -
Ortszeit Bedeckungsgrad in Achtel und Wolkenuntergrenze
Di, 04.10. 8:00 4(8400m) 6(9000m) 7(9000m)
Di, 04.10. 7:50 4(8400m) 6(9000m) 7(9000m)
Di, 04.10. 7:40 7
Di, 04.10. 7:30 3(7500m) 4(8700m) 7(10500m)
Di, 04.10. 7:20 3(7500m) 4(8700m) 7(10500m)
Di, 04.10. 7:10 8
Di, 04.10. 7:00 1(6600m) 8(7500m)
Di, 04.10. 6:30 7(4800m) 8(6600m) 8(7800m)
Di, 04.10. 6:00 6(4200m) 8(4800m) 8(8100m)
Di, 04.10. 5:30 8(5100m) 8(10500m)
Di, 04.10. 5:00 7(5400m) 7(10500m)
Ortszeit Luftdruck NN (hPa) Tendenz (hPa in 3 Std.)
Di, 04.10. 8:00 1024 - 0,4
Di, 04.10. 2:00 1025 - 1,5
Mo, 03.10. 20:00 1027 - 0,6
Mo, 03.10. 14:00 1028 - 0,3
Mo, 03.10. 8:00 1029 + 1,0
Mo, 03.10. 2:00 1027 + 1,2
So, 02.10. 20:00 1022 + 1,8
So, 02.10. 14:00 1020 + 0,4
Ortszeit Luftdruck NN (hPa) Tendenz (hPa in 3 Std.)
Di, 04.10. 8:00 1024 - 0,4
Di, 04.10. 7:50 1024 keine Meldung
Di, 04.10. 7:40 1024 keine Meldung
Di, 04.10. 7:30 1023 - 0,6
Di, 04.10. 7:20 1023 keine Meldung
Di, 04.10. 7:10 1023 keine Meldung
Di, 04.10. 7:00 1024 - 1,0
Di, 04.10. 6:30 1024 - 1,0
Di, 04.10. 6:00 1024 - 1,0
Di, 04.10. 5:30 1024 - 1,1
Di, 04.10. 5:00 1024 - 1,3
Ortszeit Schneehöhe (cm)
Di, 04.10. 8:00 0
Di, 04.10. 2:00 0
Mo, 03.10. 20:00 0
Mo, 03.10. 14:00 0
Mo, 03.10. 8:00 0
Mo, 03.10. 2:00 0
So, 02.10. 20:00 0
So, 02.10. 14:00 0
Ortszeit Schneehöhe (cm)
Di, 04.10. 8:00 0
Di, 04.10. 7:50 0
Di, 04.10. 7:40 0
Di, 04.10. 7:30 0
Di, 04.10. 7:20 0
Di, 04.10. 7:10 0
Di, 04.10. 7:00 0
Di, 04.10. 6:30 0
Di, 04.10. 6:00 0
Di, 04.10. 5:30 0
Di, 04.10. 5:00 0
Link zu dieser Seite / Seite empfehlen

Das Wetter in ...